Regional Weather Roundup
Issued by NWS

Home | Current Version | Previous Version | Graphics & Text | Print | Product List | Glossary On
Versions: 1 2 3 4 5 6 7 8 9 10 11 12 13 14 15 16 17 18 19 20 21 22 23 24 25 26 27 28 29 30 31 32 33 34 35 36 37 38 39 40 41 42 43 44 45 46 47 48 49 50
000
ASUS43 KBIS 041102
RWRND

NORTH DAKOTA REGIONAL WEATHER ROUNDUP
NATIONAL WEATHER SERVICE BISMARCK ND
600 AM CDT FRI SEP 04 2015

NOTE: "FAIR" INDICATES FEW OR NO CLOUDS BELOW 12,000 FEET WITH NO
SIGNIFICANT WEATHER AND/OR OBSTRUCTIONS TO VISIBILITY.


NDZ001>003-009>011-017-041200-
NORTHWEST NORTH DAKOTA

CITY           SKY/WX    TMP DP  RH WIND       PRES   REMARKS
WILLISTON      LGT RAIN  61  48  62 N17G24    29.79F
MINOT          CLOUDY    69  63  81 NW12      29.75S
$$

NDZ018>021-031>035-040>046-041200-
SOUTHWEST NORTH DAKOTA

CITY           SKY/WX    TMP DP  RH WIND       PRES   REMARKS
BISMARCK         N/A     71  70  96 CALM      29.71R
DICKINSON      CLOUDY    65  57  75 NE18      29.75R
GARRISON         N/A     67  63  87 NW9       29.78R
HETTINGER ARPT CLOUDY    67  55  65 NW8       29.78R
$$

NDZ004>008-012>016-024-026-027-054-041200-
NORTHEAST NORTH DAKOTA

CITY           SKY/WX    TMP DP  RH WIND       PRES   REMARKS
GRAND FORKS    CLOUDY    73  71  93 SE9       29.77S
GRND FRKS AFB  CLOUDY    73  72  94 SE10      29.77F
DEVILS LAKE    CLOUDY    73  66  78 SE12      29.74F
$$

NDZ022-023-025-028>030-036>039-047>053-041200-
SOUTHEAST NORTH DAKOTA

CITY           SKY/WX    TMP DP  RH WIND       PRES   REMARKS
FARGO          PTCLDY    74  71  91 SE7       29.76F
JAMESTOWN      MOCLDY    73  71  93 SE8       29.73S FOG
$$



USA.gov is the U.S. government's official web portal to all federal, state and local government web resources and services.